This demonstration page uses our WeatherBlox Daily Observations layout. Learn more.

Left ArrowRight Arrow

44.8408, -93.29828

Hourly Observations for September 30, 2020

Temp ( °F °C ) Dew Point ( °F °C ) Humidity (%) Winds ( mph kmh ) Pressure ( in mb ) Visibility ( mi km ) Precip ( " mm )
12:53 am 00:53 Clear 51 10.6 44 6.7 77 77 Calm 29.60 1002 10 16 0.00 0.00
1:53 am 01:53 Mostly Cloudy 52 11.1 44 6.7 75 75 SW 5 7 29.58 1002 10 16 0.00 0.00
2:53 am 02:53 Mostly Cloudy 51 10.6 44 6.7 77 77 SW 5 7 29.54 1000 10 16 0.00 0.00
3:53 am 03:53 Mostly Cloudy 52 11.1 44 6.7 75 75 W 10 17 29.53 1000 10 16 0.00 0.00
4:53 am 04:53 Mostly Cloudy 53 11.7 43 6.1 69 69 NW 17 28 29.54 1001 10 16 0.00 0.00
5:53 am 05:53 Mostly Cloudy 51 10.6 45 7.2 80 80 NNW 20 31 29.60 1002 10 16 0.00 0.00
6:01 am 06:01 Mostly Cloudy 51 10.6 45 7.2 80 80 NNW 17 28 29.61 1003 10 16 0.00 0.00
6:53 am 06:53 Cloudy 50 10 43 6.1 77 77 NNW 20 31 29.65 1004 10 16 0.00 0.00
7:53 am 07:53 Mostly Cloudy 50 10 43 6.1 77 77 NNW 15 24 29.70 1006 10 16 0.00 0.00
8:53 am 08:53 Mostly Sunny 52 11.1 43 6.1 72 72 NW 18 30 29.73 1007 10 16 0.00 0.00
9:53 am 09:53 Mostly Sunny 55 12.8 42 5.6 62 62 NW 14 22 29.75 1007 10 16 0.00 0.00
10:53 am 10:53 Partly Cloudy 59 15 42 5.6 54 54 NW 20 31 29.76 1008 10 16 0.00 0.00
11:53 am 11:53 Mostly Cloudy 60 15.6 41 5 50 50 NW 21 33 29.78 1009 10 16 0.00 0.00
12:53 pm 12:53 Mostly Cloudy 60 15.6 40 4.4 47 47 NNW 18 30 29.80 1009 10 16 0.00 0.00
1:53 pm 13:53 Mostly Cloudy 62 16.7 38 3.3 41 41 NW 16 26 29.80 1009 10 16 0.00 0.00
2:53 pm 14:53 Cloudy with Light Rain 59 15 40 4.4 49 49 NW 20 31 29.81 1009 9 14 0.00 0.00
3:53 pm 15:53 Mostly Cloudy 62 16.7 40 4.4 44 44 W 13 20 29.81 1009 10 16 0.03 0.76
4:53 pm 16:53 Mostly Cloudy 62 16.7 38 3.3 41 41 NW 22 35 29.82 1010 10 16 0.00 0.00
5:05 pm 17:05 Mostly Cloudy with Nearby Thunderstorms 58 14.4 40 4.4 51 51 NNW 25 41 29.83 1010 10 16 0.00 0.00
5:33 pm 17:33 Mostly Cloudy 61 16.1 36 2.2 39 39 NW 15 24 29.83 1010 10 16 0.00 0.00
5:53 pm 17:53 Mostly Cloudy 60 15.6 36 2.2 41 41 NNW 17 28 29.85 1011 10 16 0.00 0.00
6:25 pm 18:25 Windy with Storms Likely 54 12.2 42 5.6 64 64 NNW 25 41 29.88 1012 10 16 0.00 0.00
6:44 pm 18:44 Mostly Cloudy with Light Rain 53 11.7 40 4.4 61 61 NW 14 22 29.87 1012 8 13 0.01 0.25
6:53 pm 18:53 Mostly Cloudy 52 11.1 41 5 66 66 NW 15 24 29.89 1012 10 16 0.01 0.25
7:53 pm 19:53 Mostly Cloudy with Light Rain 52 11.1 40 4.4 64 64 NW 16 26 29.91 1013 10 16 0.00 0.00
8:53 pm 20:53 Mostly Cloudy 51 10.6 40 4.4 66 66 NW 10 17 29.92 1013 10 16 0.00 0.00
9:53 pm 21:53 Cloudy with Light Rain 50 10 43 6.1 77 77 WNW 12 19 29.93 1014 10 16 0.01 0.25
10:53 pm 22:53 Partly Cloudy 48 8.9 40 4.4 74 74 WNW 12 19 29.92 1013 10 16 0.00 0.00
11:53 pm 23:53 Partly Cloudy 47 8.3 41 5 80 80 WNW 10 17 29.94 1014 10 16 0.00 0.00

Powered by AerisWeather